Location: Brienzwiler
(46.7508°N, 8.1014°E)
Time: 08:16:32
(UTC+00:00)

Cosmos 1727 Rocket - Pass Details

Date: 05 July 2020
Orbit: 961 x 996 km, 82.9° (Epoch: 05 August)

Event Time Altitude Azimuth Distance (km) Brightness Sun altitude
Rises 23:36:43 0° 349° (N) 3,672 8.5 -20.6°
Reaches altitude 10° 23:39:13 10° 348° (NNW) 2,725 7.5 -20.6°
Maximum altitude 23:45:26 74° 265° (W) 1,018 4.0 -20.5°
Enters shadow 23:48:03 37° 189° (S) 1,477 4.4 -20.5°
